Location: Kaarina
(60.4167°N, 22.4167°E)
Time: 04:50:06
(UTC+03:00)

NOSS 3-4 (C) - Pass Details

Date: 24 August 2019
Orbit: 912 x 1301 km, 63.4° (Epoch: 16 September)

Event Time Altitude Azimuth Distance (km) Brightness Sun altitude
Rises 22:59:14 0° 274° (W) 3,636 7.2 -12.4°
Reaches altitude 10° 23:01:43 10° 277° (W) 2,728 6.5 -12.6°
Maximum altitude 23:08:07 69° 1° (N) 1,111 4.0 -13.0°
Drops below altitude 10° 23:15:09 10° 85° (E) 2,991 5.8 -13.6°
Sets 23:18:00 0° 88° (E) 4,009 6.4 -13.7°
